This demonstration page uses our WeatherBlox Daily Observations layout. Learn more.

Left ArrowRight Arrow

44.31136, -96.79839

Hourly Observations for December 9, 2022

Temp ( °F °C ) Dew Point ( °F °C ) Humidity (%) Winds ( mph kmh ) Pressure ( in mb ) Visibility ( mi km ) Precip ( " mm )
12:04 am 00:04 Cloudy with Light Snow 30 -1 28 -2 93 93 ENE 6 9 30.20 1023 1 1 0.01 0.25
12:56 am 00:56 Cloudy with Light Snow 30 -1.1 29 -1.7 96 96 NE 5 7 30.21 1023 1 1 0.06 1.52
1:37 am 01:37 Cloudy with Light Snow 28 -2 28 -2 100 100 NE 6 9 30.19 1022 1 2 0.03 0.76
1:48 am 01:48 Cloudy with Light Snow 28 -2 28 -2 100 100 NE 6 9 30.19 1022 1 2 0.04 1.02
1:56 am 01:56 Cloudy with Light Snow 29 -1.7 28 -2.2 96 96 NE 6 9 30.20 1023 1 2 0.04 1.02
2:19 am 02:19 Cloudy with Light Snow 28 -2 28 -2 100 100 NE 6 9 30.20 1023 2 3 0.01 0.13
2:56 am 02:56 Cloudy with Light Snow 29 -1.7 28 -2.2 96 96 NNE 6 9 30.23 1024 2 3 0.01 0.13
3:48 am 03:48 Cloudy with Light Snow 28 -2 27 -3 93 93 NE 7 11 30.19 1022 3 5 0.01 0.25
3:56 am 03:56 Cloudy with Light Snow 28 -2.2 27 -2.8 96 96 NE 8 13 30.20 1023 3 5 0.01 0.25
4:56 am 04:56 Cloudy with Light Snow 28 -2.2 26 -3.3 92 92 NNE 5 7 30.20 1023 4 6 0.01 0.13
5:10 am 05:10 Cloudy with Mist and Fog 28 -2 27 -3 93 93 NE 5 7 30.20 1023 4 6 0.01 0.13
5:19 am 05:19 Cloudy with Mist and Fog 28 -2 27 -3 93 93 NE 6 9 30.20 1023 5 8 0.01 0.13
5:56 am 05:56 Cloudy with Mist and Fog 28 -2.2 25 -3.9 88 88 ENE 7 11 30.21 1023 5 8 0.01 0.13
6:26 am 06:26 Cloudy with Mist and Fog 27 -3 25 -4 93 93 NE 8 13 30.22 1023 4 6 0.00 0.00
6:56 am 06:56 Cloudy with Mist and Fog 27 -2.8 25 -3.9 92 92 NE 7 11 30.23 1024 3 5 0.00 0.00
7:15 am 07:15 Cloudy with Mist and Fog 27 -3 27 -3 100 100 ENE 7 11 30.22 1023 3 5 0.00 0.00
7:37 am 07:37 Cloudy with Mist and Fog 27 -3 27 -3 100 100 ENE 8 13 30.22 1023 3 4 0.00 0.00
7:51 am 07:51 Cloudy with Mist and Fog 27 -3 27 -3 100 100 ENE 7 11 30.22 1023 2 3 0.00 0.00
7:56 am 07:56 Cloudy with Mist and Fog 27 -2.8 26 -3.3 96 96 E 9 15 30.22 1023 2 3 0.00 0.00
8:51 am 08:51 Cloudy with Freezing Fog 28 -2 27 -3 93 93 SE 5 7 30.24 1024 1 1 0.00 0.00
8:56 am 08:56 Cloudy with Freezing Fog 28 -2.2 27 -2.8 96 96 ESE 7 11 30.25 1025 1 1 0.00 0.00
9:06 am 09:06 Cloudy with Freezing Fog 28 -2 27 -3 93 93 ESE 5 7 30.24 1024 0 0 0.00 0.00
9:16 am 09:16 Cloudy with Freezing Fog 28 -2 27 -3 93 93 E 5 7 30.25 1024 1 1 0.00 0.00
9:29 am 09:29 Cloudy with Mist and Fog 28 -2 27 -3 93 93 E 7 11 30.25 1024 1 1 0.00 0.00
9:45 am 09:45 Cloudy with Mist and Fog 28 -2 28 -2 100 100 E 6 9 30.25 1024 1 2 0.00 0.00
9:56 am 09:56 Cloudy with Mist and Fog 29 -1.7 28 -2.2 96 96 Calm 30.27 1025 1 2 0.00 0.00
10:32 am 10:32 Cloudy with Mist and Fog 30 -1 28 -2 93 93 SE 3 6 30.24 1024 2 3 0.00 0.00
10:56 am 10:56 Cloudy with Mist and Fog 31 -0.6 28 -2.2 89 89 Calm 30.25 1025 3 4 0.00 0.00
11:07 am 11:07 Cloudy with Mist and Fog 32 0 28 -2 86 86 Calm 30.23 1024 3 5 0.00 0.00
11:15 am 11:15 Cloudy with Mist and Fog 34 1 28 -2 80 80 Calm 30.22 1023 3 5 0.00 0.00
11:41 am 11:41 Cloudy with Mist and Fog 30 -1 28 -2 93 93 ENE 5 7 30.21 1023 3 4 0.00 0.00
11:56 am 11:56 Cloudy with Mist and Fog 30 -1.1 28 -2.2 92 92 E 5 7 30.23 1024 3 5 0.00 0.00
12:07 pm 12:07 Cloudy with Mist and Fog 30 -1 28 -2 93 93 NE 3 6 30.20 1023 3 5 0.00 0.00
12:56 pm 12:56 Cloudy with Mist and Fog 30 -1.1 28 -2.2 92 92 ESE 10 17 30.20 1023 3 5 0.00 0.00
1:08 pm 13:08 Cloudy with Mist and Fog 30 -1 28 -2 93 93 SE 10 17 30.17 1022 3 4 0.00 0.00
1:42 pm 13:42 Cloudy with Mist and Fog 30 -1 28 -2 93 93 SE 8 13 30.17 1022 2 3 0.00 0.00
1:56 pm 13:56 Cloudy with Mist and Fog 30 -1.1 28 -2.2 92 92 ESE 8 13 30.19 1022 3 4 0.00 0.00
2:48 pm 14:48 Cloudy with Mist and Fog 28 -2 27 -3 93 93 SE 12 19 30.18 1022 2 3 0.00 0.00
2:56 pm 14:56 Cloudy with Mist and Fog 29 -1.7 27 -2.8 92 92 SE 12 19 30.19 1023 2 2 0.00 0.00
3:13 pm 15:13 Cloudy with Mist and Fog 28 -2 27 -3 93 93 SE 12 19 30.18 1022 3 5 0.00 0.00
3:56 pm 15:56 Cloudy with Mist and Fog 29 -1.7 27 -2.8 92 92 ESE 10 17 30.20 1023 4 6 0.00 0.00
4:07 pm 16:07 Cloudy with Mist and Fog 28 -2 27 -3 93 93 SE 9 15 30.19 1022 4 6 0.00 0.00
4:56 pm 16:56 Cloudy with Mist and Fog 28 -2.2 26 -3.3 92 92 SE 10 17 30.20 1023 4 6 0.00 0.00
5:36 pm 17:36 Cloudy with Mist and Fog 28 -2 27 -3 93 93 ESE 13 20 30.18 1022 4 6 0.00 0.00
5:56 pm 17:56 Cloudy with Mist and Fog 28 -2.2 27 -2.8 96 96 SE 13 20 30.19 1023 4 6 0.00 0.00
6:42 pm 18:42 Cloudy with Mist and Fog 28 -2 27 -3 93 93 SE 13 20 30.18 1022 3 4 0.00 0.00
6:56 pm 18:56 Cloudy with Mist and Fog 28 -2.2 27 -2.8 96 96 SE 12 19 30.19 1022 3 5 0.00 0.00
7:56 pm 19:56 Cloudy with Mist and Fog 28 -2.2 26 -3.3 92 92 SSE 15 24 30.19 1022 4 6 0.00 0.00
8:46 pm 20:46 Cloudy with Mist and Fog 28 -2 27 -3 93 93 SSE 14 22 30.17 1022 3 4 0.00 0.00
8:56 pm 20:56 Cloudy with Mist and Fog 28 -2.2 27 -2.8 96 96 SE 14 22 30.17 1022 2 3 0.00 0.00
9:20 pm 21:20 Cloudy with Mist and Fog 28 -2 27 -3 93 93 SSE 15 24 30.16 1021 3 5 0.00 0.00
9:56 pm 21:56 Cloudy with Mist and Fog 28 -2.2 27 -2.8 96 96 SSE 12 19 30.16 1022 5 8 0.00 0.00
10:56 pm 22:56 Cloudy with Mist and Fog 28 -2.2 27 -2.8 96 96 SSE 13 20 30.15 1021 4 6 0.00 0.00
11:56 pm 23:56 Cloudy with Mist and Fog 28 -2.2 27 -2.8 96 96 SSE 14 22 30.15 1021 5 8 0.00 0.00

Powered by AerisWeather